Torna al catalogo

ARIANE 5 DEB

SYLDA

AttivoHEO
NORAD 42694·DEBRIS·🇫🇷 France

Lanciato May 4, 2017 da Guiana Space Centre

Loading…

Prossimi Passaggi (prossime 24 ore)

TLE

AggiornatoSource: Space-Track

Epoca: Sep 14, 2026, 16:15 UTC

1 42694U 17023D   26257.67728498 -.00000206  00000-0 -86707-3 0  9992
2 42694   3.7128 107.0971 5464214 339.8832   5.0506  4.56115838120274

Traccia ARIANE 5 DEB in tempo reale con AllMySat

Download on the App Store